FW6909 Weather Reports


Display with metric or nautical units.
time (UTC)temp
F
wind
direction
speed
MPH
gust
MPH
rain 1hr
in
rain 24hr
in
rain mn
in
humidity
%
barometer
mb
20260831183055 57 295 1.0 5.0 0.00 0.00 0.00 70 1013.7
20260831182529 57 281 2.0 5.0 0.00 0.00 0.00 70 1013.6
20260831182033 57 236 1.0 4.0 0.00 0.00 0.00 70 1013.5
20260831181556 57 281 2.0 5.0 0.00 0.00 0.00 70 1013.3
20260831181031 58 286 2.0 5.0 0.00 0.00 0.00 70 1013.4
20260831180532 58 293 2.0 5.0 0.00 0.00 0.00 70 1013.2
20260831180055 58 259 2.0 6.0 0.00 0.00 0.00 70 1013.2
20260831175532 58 281 2.0 6.0 0.00 0.03 0.00 70 1013.1
20260831175031 58 281 2.0 4.0 0.00 0.03 0.00 70 1013.1
20260831174543 58 293 2.0 7.0 0.00 0.03 0.00 70 1013.2
20260831174029 58 286 2.0 7.0 0.00 0.03 0.00 70 1013.0
20260831173533 58 290 2.0 7.0 0.00 0.03 0.00 70 1013.0
20260831173057 58 298 2.0 5.0 0.00 0.03 0.00 70 1013.0
20260831172531 58 351 2.0 4.0 0.00 0.03 0.00 70 1012.8
20260831172031 58 280 2.0 4.0 0.00 0.03 0.00 70 1012.8
20260831171554 58 281 2.0 4.0 0.00 0.03 0.00 70 1012.7
20260831171031 58 326 1.0 4.0 0.00 0.03 0.00 70 1012.6
20260831170532 58 273 2.0 6.0 0.00 0.03 0.00 69 1012.5
20260831170047 58 293 3.0 6.0 0.00 0.03 0.00 68 1012.5
20260831165530 59 283 3.0 7.0 0.00 0.07 0.00 68 1012.4
20260831165031 59 289 2.0 7.0 0.00 0.07 0.00 67 1012.4
20260831164544 59 302 3.0 7.0 0.00 0.07 0.00 67 1012.3
20260831164031 59 282 3.0 6.0 0.00 0.07 0.00 67 1012.3
20260831163531 59 319 2.0 8.0 0.00 0.07 0.00 67 1012.1
20260831163053 59 293 4.0 8.0 0.00 0.07 0.00 66 1012.1
20260831162530 59 270 3.0 8.0 0.00 0.07 0.00 66 1012.2
20260831162030 60 245 2.0 8.0 0.00 0.07 0.00 67 1012.3
20260831161547 60 281 4.0 8.0 0.00 0.07 0.00 67 1012.2
20260831161030 60 299 3.0 8.0 0.00 0.07 0.00 69 1012.1
20260831160530 60 295 2.0 7.0 0.00 0.07 0.00 70 1012.1
20260831160056 60 281 3.0 7.0 0.00 0.07 0.00 70 1012.1
20260831155532 60 245 1.0 6.0 0.00 0.07 0.00 71 1012.0
20260831155032 60 276 3.0 8.0 0.00 0.07 0.00 70 1012.2
20260831154617 60 300 3.0 8.0 0.00 0.07 0.00 69 1011.9
20260831154032 61 296 3.0 8.0 0.00 0.07 0.00 69 1011.9
20260831153532 61 293 3.0 8.0 0.00 0.07 0.00 69 1011.7
20260831153052 61 266 3.0 8.0 0.00 0.07 0.00 69 1011.5
20260831152531 61 302 4.0 8.0 0.00 0.07 0.00 69 1011.4
20260831152030 60 278 3.0 7.0 0.00 0.07 0.00 71 1011.5
20260831151546 60 264 3.0 8.0 0.00 0.07 0.00 71 1011.5
20260831151030 60 276 3.0 8.0 0.00 0.07 0.00 70 1011.5
20260831150532 60 300 3.0 9.0 0.00 0.07 0.00 71 1011.3
20260831150055 60 286 4.0 9.0 0.00 0.07 0.00 71 1011.4
20260831145532 60 264 4.0 9.0 0.00 0.07 0.00 72 1011.2
20260831145031 60 284 3.0 6.0 0.00 0.07 0.00 72 1011.1
20260831144600 60 285 2.0 7.0 0.00 0.07 0.00 72 1011.1
20260831144031 60 278 3.0 7.0 0.00 0.07 0.00 72 1011.0
20260831143531 60 285 3.0 6.0 0.00 0.07 0.00 72 1011.0
20260831143055 60 276 3.0 6.0 0.00 0.07 0.00 72 1011.0
20260831142531 60 282 3.0 6.0 0.00 0.07 0.00 72 1010.9
20260831142030 60 284 2.0 6.0 0.00 0.07 0.00 73 1010.8
20260831141546 61 279 2.0 6.0 0.00 0.07 0.00 73 1010.8
20260831141031 61 345 2.0 5.0 0.00 0.07 0.00 73 1010.6
20260831140533 61 271 2.0 5.0 0.00 0.07 0.00 72 1010.5
20260831140055 61 300 2.0 5.0 0.00 0.07 0.00 72 1010.5
20260831135529 61 271 2.0 5.0 0.00 0.07 0.00 72 1010.5
20260831135029 61 285 2.0 7.0 0.00 0.07 0.00 72 1010.2
20260831134555 61 274 2.0 7.0 0.00 0.07 0.00 72 1010.3
20260831134030 62 326 2.0 7.0 0.00 0.07 0.00 72 1010.2
20260831133528 61 259 4.0 9.0 0.00 0.07 0.00 72 1010.2
20260831133051 61 288 5.0 9.0 0.00 0.07 0.00 72 1010.1
20260831132532 61 296 3.0 7.0 0.00 0.07 0.00 72 1010.0
20260831132035 61 252 3.0 10.0 0.00 0.07 0.00 73 1010.1
20260831131551 61 293 3.0 10.0 0.00 0.07 0.00 73 1010.1
20260831131033 61 288 5.0 8.0 0.00 0.07 0.00 73 1010.1
20260831130532 62 293 4.0 9.0 0.00 0.07 0.00 73 1010.0
20260831130110 62 292 4.0 9.0 0.00 0.07 0.00 74 1009.9
20260831125531 62 223 2.0 6.0 0.00 0.07 0.00 75 1009.9
20260831125033 61 310 2.0 5.0 0.00 0.07 0.00 74 1009.8
20260831124551 61 272 3.0 8.0 0.00 0.07 0.00 75 1010.0
20260831124031 61 269 3.0 8.0 0.00 0.07 0.00 75 1009.8
20260831123530 62 276 3.0 8.0 0.00 0.07 0.00 75 1009.7
20260831123048 62 279 2.0 8.0 0.00 0.07 0.00 76 1009.6
20260831122531 62 12 2.0 8.0 0.00 0.07 0.00 76 1009.6
20260831122032 61 278 3.0 8.0 0.00 0.07 0.00 75 1009.5
20260831121544 62 309 3.0 8.0 0.00 0.07 0.00 75 1009.3
20260831121032 63 346 2.0 5.0 0.00 0.07 0.00 76 1009.3
20260831120532 63 301 2.0 5.0 0.00 0.07 0.00 76 1009.2
20260831120108 63 306 3.0 5.0 0.00 0.07 0.00 77 1009.1
20260831115532 62 244 2.0 4.0 0.00 0.07 0.00 78 1009.1
20260831115032 61 274 2.0 4.0 0.00 0.07 0.00 79 1008.9
20260831114553 61 245 1.0 3.0 0.00 0.07 0.00 79 1008.8
20260831114033 61 285 1.0 8.0 0.00 0.07 0.00 79 1008.8
20260831113532 61 250 2.0 8.0 0.00 0.07 0.00 78 1008.8
20260831113047 62 281 4.0 8.0 0.00 0.07 0.00 75 1008.8
20260831112531 64 294 2.0 5.0 0.00 0.07 0.00 76 1008.7
20260831112034 64 304 1.0 5.0 0.00 0.07 0.00 77 1008.6
20260831111544 63 273 2.0 4.0 0.00 0.07 0.00 77 1008.5
20260831111031 63 271 2.0 4.0 0.00 0.07 0.00 77 1008.3
20260831110531 63 262 2.0 4.0 0.00 0.07 0.00 78 1008.4
20260831110100 63 302 2.0 4.0 0.00 0.07 0.00 79 1008.4
20260831105532 63 286 1.0 4.0 0.00 0.08 0.00 78 1008.2
20260831105031 63 297 2.0 4.0 0.00 0.08 0.00 79 1008.2
20260831104551 63 276 2.0 5.0 0.00 0.08 0.00 79 1008.1
20260831104032 63 252 2.0 5.0 0.00 0.08 0.00 80 1008.1
20260831103532 62 284 2.0 3.0 0.00 0.08 0.00 81 1008.2
20260831103048 61 284 1.0 4.0 0.00 0.08 0.00 81 1008.0
20260831102533 61 311 2.0 4.0 0.00 0.08 0.00 82 1008.0
20260831102032 61 311 2.0 5.0 0.00 0.08 0.00 82 1007.9
20260831101547 61 291 2.0 5.0 0.00 0.08 0.00 83 1008.0
20260831101034 61 291 1.0 4.0 0.00 0.08 0.00 84 1008.1
20260831100528 60 258 2.0 4.0 0.00 0.08 0.00 84 1007.9
20260831100043 60 281 1.0 3.0 0.00 0.08 0.00 85 1007.9
20260831095528 60 288 1.0 2.0 0.00 0.08 0.00 85 1007.9
20260831095032 60 310 1.0 2.0 0.00 0.08 0.00 85 1007.9
20260831094548 59 266 1.0 2.0 0.00 0.08 0.00 85 1007.8
20260831094031 59 268 0.0 2.0 0.00 0.08 0.00 85 1007.8
20260831093529 59 272 0.0 4.0 0.00 0.08 0.00 85 1007.6
20260831093048 59 268 1.0 4.0 0.00 0.08 0.00 84 1007.6
20260831092528 59 281 2.0 6.0 0.00 0.08 0.00 83 1007.5
20260831092027 60 288 3.0 6.0 0.00 0.08 0.00 83 1007.4
20260831091554 61 292 3.0 4.0 0.00 0.08 0.00 82 1007.3
20260831091028 61 297 1.0 4.0 0.00 0.08 0.00 83 1007.1
20260831090528 61 295 1.0 4.0 0.00 0.08 0.00 83 1007.1
20260831090048 60 304 2.0 4.0 0.00 0.08 0.00 83 1007.0
20260831085528 61 283 1.0 5.0 0.00 0.08 0.00 83 1006.9
20260831085027 61 297 1.0 5.0 0.00 0.08 0.00 84 1006.9
20260831084544 61 283 2.0 5.0 0.00 0.08 0.00 84 1006.8
20260831084028 61 290 2.0 4.0 0.00 0.08 0.00 85 1006.8
20260831083527 60 286 1.0 4.0 0.00 0.08 0.00 86 1006.7
20260831083053 60 291 1.0 4.0 0.00 0.08 0.00 86 1006.8
20260831082528 59 246 1.0 3.0 0.00 0.08 0.00 87 1006.6
20260831082029 59 257 1.0 3.0 0.00 0.08 0.00 87 1006.5
20260831081547 59 278 0.0 3.0 0.00 0.08 0.00 87 1006.6
20260831081029 59 275 0.0 3.0 0.00 0.08 0.00 87 1006.4
20260831080531 58 238 0.0 3.0 0.00 0.08 0.00 88 1006.4
20260831080046 58 265 0.0 3.0 0.00 0.08 0.00 88 1006.4
20260831075528 58 293 1.0 3.0 0.00 0.10 0.00 88 1006.4
20260831075027 58 280 0.0 2.0 0.00 0.10 0.00 89 1006.4
20260831074552 58 270 0.0 2.0 0.00 0.10 0.00 89 1006.2
20260831074030 58 272 0.0 2.0 0.00 0.10 0.00 89 1006.2
20260831073530 58 274 0.0 1.0 0.00 0.10 0.00 89 1006.3
20260831073050 58 0 0.0 1.0 0.00 0.10 0.00 89 1006.2
20260831072530 58 0 0.0 1.0 0.00 0.10 0.00 89 1006.0
20260831072030 58 0 0.0 1.0 0.00 0.10 0.00 89 1006.0
20260831071544 58 0 0.0 2.0 0.00 0.10 0.00 89 1006.0
20260831071028 58 0 0.0 2.0 0.00 0.10 0.00 89 1005.8
20260831070529 57 271 0.0 1.0 0.00 0.10 0.00 89 1005.8
20260831070056 57 268 0.0 1.0 0.00 0.10 0.00 89 1005.7
20260831065531 57 250 0.0 1.0 0.00 0.14 0.00 89 1005.7
20260831065033 57 0 0.0 1.0 0.00 0.14 0.00 89 1005.6
20260831064554 57 0 0.0 1.0 0.00 0.14 0.00 89 1005.7
20260831064032 57 0 0.0 1.0 0.00 0.14 0.00 89 1005.5
20260831063531 57 0 0.0 0.0 0.00 0.14 0.00 89 1005.3
20260831063048 56 0 0.0 0.0 0.00 0.14 0.00 89 1005.3
20260831062533 56 0 0.0 0.0 0.00 0.14 0.00 89 1005.2
20260831062033 56 0 0.0 0.0 0.00 0.14 0.00 89 1005.1
20260831061546 56 0 0.0 0.0 0.00 0.14 0.00 89 1005.1
20260831061032 56 0 0.0 1.0 0.00 0.14 0.00 89 1005.0
20260831060533 56 0 0.0 1.0 0.00 0.14 0.00 89 1005.0
20260831060054 56 256 0.0 1.0 0.00 0.14 0.00 89 1005.0
20260831055531 56 0 0.0 1.0 0.00 0.22 0.00 89 1004.8
20260831055031 56 0 0.0 1.0 0.00 0.22 0.00 89 1004.7
20260831054545 56 0 0.0 1.0 0.00 0.22 0.00 89 1004.7
20260831054034 56 0 0.0 2.0 0.00 0.22 0.00 89 1004.6
20260831053531 56 274 0.0 2.0 0.00 0.22 0.00 89 1004.6
20260831053058 56 271 0.0 2.0 0.00 0.22 0.00 89 1004.5
20260831052531 56 262 0.0 1.0 0.00 0.22 0.00 89 1004.5
20260831052030 56 0 0.0 1.0 0.00 0.22 0.00 89 1004.4
20260831051553 56 0 0.0 1.0 0.00 0.22 0.00 89 1004.2
20260831051032 56 0 0.0 1.0 0.00 0.22 0.00 89 1004.3
20260831050533 56 251 0.0 1.0 0.00 0.22 0.00 89 1004.2
20260831050107 56 250 0.0 1.0 0.00 0.22 0.00 89 1004.2
20260831045531 56 0 0.0 0.0 0.00 0.32 0.00 89 1004.1
20260831045031 56 0 0.0 0.0 0.00 0.32 0.00 89 1004.0
20260831044603 56 0 0.0 1.0 0.00 0.32 0.00 89 1004.1
20260831044031 56 0 0.0 1.0 0.00 0.32 0.00 89 1004.0
20260831043532 56 0 0.0 1.0 0.00 0.32 0.00 89 1004.0
20260831043049 56 251 0.0 1.0 0.00 0.32 0.00 89 1004.0
20260831042534 56 0 0.0 1.0 0.00 0.32 0.00 89 1004.0
20260831042029 56 0 0.0 0.0 0.00 0.32 0.00 89 1003.9
20260831041644 56 0 0.0 0.0 0.00 0.32 0.00 89 1003.9
20260831041033 56 0 0.0 0.0 0.00 0.32 0.00 89 1004.0
20260831040532 56 0 0.0 1.0 0.00 0.32 0.00 89 1003.9
20260831035535 56 0 0.0 1.0 0.00 0.38 0.00 89 1003.9
20260831035038 56 0 0.0 1.0 0.00 0.38 0.00 89 1003.9
20260831034600 56 0 0.0 1.0 0.00 0.38 0.00 89 1003.8
20260831034032 56 253 0.0 1.0 0.00 0.38 0.00 89 1003.7
20260831033532 56 0 0.0 1.0 0.00 0.38 0.00 89 1003.6
20260831033057 56 0 0.0 1.0 0.00 0.38 0.00 89 1003.5
20260831032531 56 0 0.0 1.0 0.00 0.38 0.00 89 1003.5
20260831032033 56 0 0.0 1.0 0.00 0.38 0.00 89 1003.5
20260831031549 56 253 0.0 1.0 0.00 0.38 0.00 89 1003.5
20260831031030 56 0 0.0 0.0 0.00 0.38 0.00 89 1003.5
20260831030529 56 0 0.0 0.0 0.00 0.38 0.00 89 1003.4
20260831030053 57 0 0.0 1.0 0.00 0.38 0.00 89 1003.4
20260831025531 57 0 0.0 1.0 0.00 0.65 0.00 89 1003.3
20260831025031 57 0 0.0 1.0 0.00 0.65 0.00 89 1003.3
20260831024617 57 0 0.0 1.0 0.00 0.65 0.00 89 1003.2
20260831024031 57 0 0.0 1.0 0.00 0.65 0.00 89 1003.4
20260831023531 57 252 0.0 1.0 0.00 0.65 0.00 89 1003.3
20260831023052 57 252 0.0 1.0 0.00 0.65 0.00 89 1003.4
20260831022531 57 248 0.0 1.0 0.00 0.65 0.00 89 1003.2
20260831022031 57 0 0.0 1.0 0.00 0.65 0.00 89 1003.2
20260831021552 57 0 0.0 1.0 0.00 0.65 0.00 89 1003.2
20260831021032 57 248 0.0 1.0 0.00 0.65 0.00 89 1003.3
20260831020535 57 245 0.0 1.0 0.00 0.65 0.00 89 1003.2
20260831020047 57 0 0.0 1.0 0.00 0.65 0.00 89 1003.2
20260831015532 57 0 0.0 1.0 0.00 0.70 0.00 89 1003.1
20260831015031 57 0 0.0 0.0 0.00 0.70 0.00 88 1003.2
20260831014547 57 0 0.0 0.0 0.00 0.70 0.00 89 1003.0
20260831014031 57 0 0.0 0.0 0.00 0.70 0.00 88 1003.0
20260831013530 57 0 0.0 1.0 0.00 0.70 0.00 88 1003.0
20260831013057 57 234 0.0 1.0 0.00 0.70 0.00 88 1003.0
20260831012531 57 0 0.0 1.0 0.00 0.70 0.00 88 1003.2
20260831012031 57 0 0.0 1.0 0.00 0.70 0.00 88 1003.1
20260831011556 57 231 0.0 1.0 0.00 0.70 0.00 88 1003.0
20260831011031 57 266 0.0 1.0 0.00 0.70 0.00 88 1003.1
20260831010531 57 281 0.0 1.0 0.00 0.70 0.00 88 1003.2
20260831010115 57 0 0.0 1.0 0.00 0.70 0.00 88 1003.0
20260831005532 57 281 0.0 1.0 0.00 0.74 0.00 88 1003.0
20260831005034 57 0 0.0 0.0 0.00 0.74 0.00 88 1003.0
20260831004556 57 0 0.0 0.0 0.00 0.74 0.00 88 1003.0
20260831004031 57 0 0.0 0.0 0.00 0.74 0.00 88 1002.9
20260831003533 57 0 0.0 1.0 0.00 0.74 0.00 88 1003.0
20260831003049 57 0 0.0 1.0 0.00 0.74 0.00 88 1002.8
20260831002530 57 0 0.0 1.0 0.00 0.74 0.00 88 1002.8
20260831002030 57 0 0.0 1.0 0.00 0.74 0.00 88 1002.7
20260831001545 57 0 0.0 1.0 0.00 0.74 0.00 88 1002.7
20260831001033 57 0 0.0 1.0 0.00 0.74 0.00 88 1002.7
20260831000532 57 281 0.0 1.0 0.00 0.74 0.00 88 1002.7
20260831000104 57 0 0.0 1.0 0.00 0.74 0.00 88 1002.7
20260830235534 57 0 0.0 1.0 0.00 0.76 0.00 88 1002.5
20260830235029 57 0 0.0 1.0 0.00 0.76 0.00 88 1002.5
20260830234551 57 283 0.0 1.0 0.00 0.76 0.00 88 1002.8
20260830234033 57 280 0.0 1.0 0.00 0.76 0.00 88 1002.7
20260830233531 57 245 0.0 0.0 0.00 0.76 0.00 88 1002.6
20260830233047 57 0 0.0 0.0 0.00 0.76 0.00 88 1002.6
20260830232531 57 0 0.0 0.0 0.00 0.76 0.00 88 1002.6
20260830232031 57 0 0.0 0.0 0.00 0.76 0.00 88 1002.7
20260830231546 57 0 0.0 0.0 0.00 0.76 0.00 88 1002.8
20260830231035 57 0 0.0 0.0 0.00 0.76 0.00 88 1002.8
20260830230532 57 0 0.0 0.0 0.00 0.76 0.00 88 1002.6
20260830230053 57 0 0.0 0.0 0.00 0.76 0.00 88 1002.8
20260830225532 57 0 0.0 0.0 0.00 0.76 0.76 88 1002.8
20260830225031 57 0 0.0 0.0 0.00 0.76 0.76 88 1002.7
20260830224546 57 0 0.0 0.0 0.00 0.76 0.76 87 1002.6
20260830224031 57 0 0.0 0.0 0.00 0.76 0.76 87 1002.6
20260830223532 57 0 0.0 0.0 0.00 0.76 0.76 87 1002.5
20260830223130 57 0 0.0 0.0 0.00 0.76 0.76 87 1002.6
20260830222532 57 0 0.0 0.0 0.00 0.76 0.76 87 1002.6
20260830222033 57 0 0.0 0.0 0.00 0.76 0.76 87 1002.6
20260830221555 57 0 0.0 0.0 0.00 0.76 0.76 87 1002.7
20260830221031 57 0 0.0 0.0 0.00 0.76 0.76 87 1002.8
20260830220531 58 0 0.0 0.0 0.00 0.76 0.76 87 1002.7
20260830220105 58 0 0.0 0.0 0.00 0.76 0.76 87 1002.7
20260830215532 57 0 0.0 0.0 0.00 0.76 0.76 87 1002.6
20260830215029 57 0 0.0 0.0 0.00 0.76 0.76 87 1002.4
20260830214552 57 0 0.0 0.0 0.00 0.76 0.76 87 1002.5
20260830214029 58 0 0.0 0.0 0.00 0.76 0.76 87 1002.5
20260830213532 57 0 0.0 0.0 0.00 0.76 0.76 87 1002.5
20260830213050 57 0 0.0 0.0 0.00 0.76 0.76 87 1002.5
20260830212532 58 0 0.0 0.0 0.00 0.76 0.76 87 1002.5
20260830212031 58 0 0.0 0.0 0.00 0.76 0.76 87 1002.5
20260830211544 58 0 0.0 0.0 0.00 0.76 0.76 87 1002.5
20260830211032 58 0 0.0 0.0 0.00 0.76 0.76 86 1002.5
20260830210533 58 0 0.0 0.0 0.00 0.76 0.76 86 1002.4
20260830210045 58 0 0.0 0.0 0.00 0.76 0.76 86 1002.4
20260830205531 58 0 0.0 1.0 0.00 0.76 0.76 86 1002.5
20260830205033 58 0 0.0 1.0 0.00 0.76 0.76 86 1002.4
20260830204551 58 0 0.0 1.0 0.00 0.76 0.76 86 1002.4
20260830204032 58 0 0.0 1.0 0.00 0.76 0.76 86 1002.4
20260830203532 58 0 0.0 1.0 0.00 0.76 0.76 86 1002.3
20260830203048 58 0 0.0 1.0 0.00 0.76 0.76 86 1002.4
20260830202532 58 111 0.0 1.0 0.00 0.76 0.76 86 1002.3
20260830202032 58 0 0.0 1.0 0.00 0.76 0.76 86 1002.4
20260830201547 58 83 0.0 0.0 0.00 0.76 0.76 86 1002.3
20260830201031 58 0 0.0 0.0 0.00 0.76 0.76 86 1002.4
20260830200531 58 0 0.0 0.0 0.00 0.76 0.76 86 1002.4
20260830200042 58 0 0.0 0.0 0.00 0.76 0.76 85 1002.5
20260830195535 59 0 0.0 1.0 0.00 0.76 0.76 85 1002.4
20260830195033 59 0 0.0 2.0 0.00 0.76 0.76 85 1002.4
20260830194604 59 82 0.0 2.0 0.00 0.76 0.76 85 1002.4
20260830194031 59 78 0.0 1.0 0.00 0.76 0.76 85 1002.3
20260830193531 59 87 0.0 1.0 0.00 0.76 0.76 85 1002.5
20260830193100 59 0 0.0 1.0 0.00 0.76 0.76 85 1002.3
20260830192531 59 0 0.0 2.0 0.00 0.76 0.76 85 1002.5
20260830192031 59 94 0.0 2.0 0.00 0.76 0.76 85 1002.4
20260830191543 59 72 0.0 1.0 0.00 0.76 0.76 85 1002.4
20260830191031 60 0 0.0 1.0 0.00 0.76 0.76 84 1002.4
20260830190531 59 65 0.0 1.0 0.00 0.76 0.76 84 1002.3
20260830190048 60 63 0.0 1.0 0.00 0.76 0.76 84 1002.3
20260830185534 59 71 0.0 1.0 0.00 0.76 0.76 84 1002.3
20260830185032 59 75 0.0 1.0 0.00 0.76 0.76 84 1002.4
20260830184600 59 72 0.0 1.0 0.00 0.76 0.76 84 1002.5
20260830184032 59 0 0.0 1.0 0.00 0.76 0.76 84 1002.5
20260830183532 59 77 0.0 1.0 0.00 0.76 0.76 84 1002.5